User: anonymous   Login
Location: Unspecified
(0.0000°N, 0.0000°E)
Time: 06:47:47
(UTC+00:00)
Language:

STARLINK-4580 - Orbit

View from above orbital plane
View from above orbital plane
View from above satellite
View from above satellite

Ground track
Ground track

The orbit is defined by the following mean orbital elements,

1 53579U          26145.47999284 +.00000000 +00000-0 +56722-3 0 00007
2 53579  53.2127  68.9873 0001536  92.7091 267.4077 15.08792877    02
Epoch (UTC): 25 May 2026 11:31:11
Eccentricity: 0.0001536
inclination: 53.2127°
perigee height: 539 km
apogee height: 541 km
right ascension of ascending node: 68.9873°
argument of perigee: 92.7091°
revolutions per day: 15.08792877
mean anomaly at epoch: 267.4077°

The dashed part of the orbit path shows where the satellite is in the earth's shadow,  

DLR